Theta_e
309 309 309 309 308 307 307 307 307 307 307 306 307 307 307 309 312 315 317 318 316 312 310 309 312 315 315 314 317 318 321 330 333 332 333 334 335 335 336 334 331 335 332 322 318 319 320 322 323 323 322 323 322 321 321 320 320 321 326 330 328 331 331 327 326 320 323 326 319 318 320 321 323 322 323 325 325 325 326 325 326 330 328 328 331 332 333 333
310 309 309 309 309 307 307 306 306 307 307 306 306 307 307 309 311 314 316 318 317 315 311 308 310 313 313 313 315 316 322 332 332 331 333 333 334 335 336 334 329 331 331 323 319 321 322 323 324 323 322 322 322 322 322 321 320 322 329 327 327 334 328 320 320 316 318 321 317 319 320 321 323 322 323 325 326 326 327 327 326 329 330 330 330 331 334 333
310 310 309 309 309 308 307 306 306 306 306 306 306 306 306 308 310 312 316 317 317 317 313 308 309 311 311 314 316 316 321 328 329 330 332 332 334 335 336 335 328 325 327 325 322 323 326 326 324 323 322 323 324 323 323 323 321 321 325 327 331 330 319 314 315 315 317 318 318 319 319 320 321 322 322 323 325 325 327 327 325 327 328 328 328 329 333 333
310 310 310 309 309 309 308 306 306 306 306 306 305 306 306 308 310 311 314 317 317 317 316 311 308 310 311 313 317 316 317 322 325 328 331 331 333 334 335 336 329 323 323 323 322 323 325 325 323 322 324 324 324 324 323 324 323 321 322 329 331 322 316 315 314 315 317 318 319 319 319 319 319 321 320 321 326 326 324 322 322 322 321 322 324 328 332 333
310 310 310 309 309 309 308 307 306 306 306 306 305 305 306 307 309 311 313 316 317 316 316 313 309 312 314 312 314 315 315 321 326 327 330 330 332 334 334 335 331 324 320 320 320 321 321 322 322 323 325 325 325 326 324 324 323 321 321 323 322 316 316 316 313 315 316 318 320 317 318 319 319 320 319 320 327 326 322 320 319 318 318 319 321 326 332 332
310 310 310 310 309 309 308 307 306 306 306 305 305 305 306 306 308 310 312 315 317 316 316 315 311 312 314 313 312 313 315 322 328 328 329 329 331 333 334 334 328 323 320 318 319 318 319 320 322 324 325 325 326 327 327 324 322 324 323 320 318 316 316 316 314 315 315 317 318 317 318 318 316 318 318 319 323 321 320 320 319 319 320 321 321 325 330 331
310 310 310 310 309 309 308 308 307 305 305 305 305 304 305 306 307 309 310 313 316 316 316 314 312 314 317 316 312 314 316 319 324 326 327 329 331 331 334 332 323 320 319 317 318 317 317 320 322 324 325 327 326 326 327 324 322 325 326 322 320 319 316 315 315 315 315 316 317 317 317 316 316 317 317 318 320 319 319 319 319 320 321 323 324 325 327 327
310 310 310 309 309 309 308 308 307 306 305 304 305 305 305 305 307 308 309 312 315 317 317 314 314 318 319 316 314 317 318 318 322 325 324 326 329 329 332 331 321 318 319 317 318 318 318 320 322 325 326 326 326 326 326 325 324 325 327 324 321 320 316 314 315 315 316 316 317 317 316 316 316 316 315 317 319 319 318 319 319 320 322 324 325 325 326 326
310 310 310 309 309 308 308 308 307 306 305 304 304 304 305 305 306 308 308 310 314 317 317 316 319 323 319 314 314 318 319 317 320 322 322 323 325 328 331 329 321 317 319 318 318 318 318 320 322 325 326 326 326 325 324 328 329 325 325 324 321 321 318 315 315 316 317 317 318 319 319 319 318 317 318 317 317 317 317 318 318 319 321 323 324 324 325 325
310 309 309 309 308 308 308 307 306 306 305 304 304 304 305 306 306 307 308 310 313 316 317 317 320 325 323 317 316 318 317 315 318 318 320 321 322 327 330 330 324 318 319 318 317 318 318 321 323 324 326 326 326 324 323 328 331 326 324 324 323 322 318 315 315 316 317 318 318 321 321 320 319 319 321 319 317 317 317 317 317 318 320 320 323 324 324 324
309 309 309 308 308 308 308 307 306 306 305 304 304 304 305 307 307 307 307 309 313 315 317 317 319 325 325 319 317 318 316 315 317 316 318 320 321 326 329 331 327 320 318 318 317 318 318 321 323 324 328 328 326 325 323 325 327 325 324 324 323 321 319 317 316 316 316 318 319 319 320 319 318 318 320 321 319 319 318 317 317 317 319 319 321 323 324 324
309 309 308 308 308 308 307 307 306 305 305 304 304 304 305 307 308 308 307 309 312 315 316 317 319 323 325 320 317 316 315 316 317 317 318 320 320 324 328 331 329 323 319 319 318 317 318 321 323 325 328 328 326 326 325 325 326 325 324 325 323 321 322 320 318 318 316 318 319 318 321 322 320 319 320 321 321 320 318 318 318 317 318 319 321 323 324 324
309 309 309 308 307 307 307 307 306 305 304 304 304 304 305 307 309 309 308 309 312 314 316 317 318 322 324 321 318 315 315 315 316 317 318 321 320 323 328 330 330 327 321 321 320 318 319 321 323 325 327 327 325 327 327 325 325 325 323 325 325 323 326 324 320 320 318 318 319 320 325 326 324 322 321 323 322 320 318 317 318 318 319 319 320 322 322 324
309 309 308 308 307 307 307 306 306 305 304 303 303 304 305 307 309 309 308 309 312 314 316 317 317 321 323 320 319 316 314 316 319 318 317 321 322 325 329 329 331 329 322 320 320 318 319 321 323 325 327 326 324 324 324 323 325 326 324 325 328 329 331 327 320 321 321 319 319 322 325 326 328 327 323 324 323 321 320 319 318 318 319 319 320 321 321 322
309 308 308 308 307 307 306 306 306 305 305 304 303 304 306 307 309 309 308 310 313 314 315 316 317 320 322 320 320 318 314 316 320 319 318 321 321 323 328 328 329 326 320 318 318 318 320 321 323 325 326 325 325 325 324 323 324 325 328 329 329 330 332 329 321 320 324 321 318 324 327 327 328 326 325 326 323 321 320 320 320 319 319 319 320 320 320 320
308 308 308 307 307 307 306 305 306 306 306 305 304 304 305 307 309 310 309 310 313 313 315 316 317 320 321 321 321 320 317 317 318 318 319 321 320 320 326 328 325 321 319 318 318 319 321 322 323 325 324 324 325 327 326 327 325 324 329 331 329 328 329 330 325 319 323 322 319 322 327 330 326 319 320 323 322 320 319 319 320 319 319 319 319 320 320 320
307 307 307 307 307 306 306 305 305 305 306 306 304 304 306 307 309 310 309 310 312 313 315 316 317 320 322 321 322 321 319 318 317 318 320 319 318 318 323 325 322 319 318 320 321 321 322 323 323 325 325 323 324 327 329 330 329 326 327 331 331 328 327 331 329 320 320 322 321 322 323 327 324 319 319 319 319 319 317 318 319 319 320 319 319 320 320 320
306 306 307 307 307 306 306 305 305 305 305 306 305 305 306 307 308 310 311 311 313 315 316 316 318 321 323 321 322 322 319 319 317 318 319 318 317 319 322 322 320 319 320 321 323 322 323 323 323 327 327 324 323 325 331 331 329 327 327 331 331 329 328 330 331 323 321 324 324 324 322 322 323 322 322 320 318 317 317 317 318 318 319 319 320 320 320 320
306 306 306 307 306 306 305 306 305 305 305 306 306 307 308 309 310 312 311 312 315 318 319 318 318 321 323 321 321 322 320 319 318 318 318 318 320 322 321 321 320 320 320 322 323 323 324 324 325 329 328 326 323 325 330 329 327 327 327 329 330 330 328 327 329 323 320 324 324 324 324 322 322 322 321 322 320 317 318 318 317 317 317 317 319 320 320 320
306 306 306 306 306 306 305 306 306 305 306 307 308 310 310 311 313 315 314 314 316 318 319 318 317 319 321 320 320 322 321 319 319 318 318 319 321 321 320 320 321 321 320 321 323 323 324 325 326 327 327 326 324 324 328 327 326 328 328 329 329 330 330 327 328 323 319 324 325 323 324 323 322 322 319 319 318 317 317 317 316 317 316 316 317 318 320 320
306 306 306 306 305 306 305 306 306 306 306 307 309 311 311 311 315 316 315 316 315 314 317 318 317 318 320 321 320 321 321 320 319 318 319 320 320 320 320 321 322 322 321 320 323 324 324 326 326 325 326 326 324 324 327 329 329 329 328 328 328 330 331 328 326 322 317 322 327 323 322 322 320 320 318 316 316 316 316 317 317 318 318 318 316 317 319 319
306 305 306 305 305 305 305 306 306 306 307 309 310 311 310 310 312 312 312 315 314 313 316 317 318 319 319 320 320 320 320 320 320 320 321 321 321 320 320 321 322 322 321 322 324 325 325 326 326 324 324 325 325 324 327 330 330 330 329 328 330 328 327 327 323 318 316 322 328 324 321 321 319 319 317 315 315 317 317 317 318 319 319 319 318 317 317 318
305 305 305 304 304 305 305 306 306 307 308 310 310 309 308 308 311 312 312 315 316 314 315 316 318 320 320 321 320 319 320 321 321 321 321 321 320 320 321 321 323 322 322 323 325 326 326 326 324 324 324 325 325 325 327 329 330 330 328 328 331 327 328 332 325 317 317 319 323 322 320 320 318 319 317 314 315 316 318 318 319 320 320 321 321 319 317 317
305 305 305 304 304 305 306 306 307 308 309 309 310 309 307 308 311 313 313 314 316 316 316 316 317 319 321 321 321 319 320 320 320 321 320 320 320 320 321 321 322 322 322 323 324 325 326 325 323 324 324 325 326 326 326 328 329 329 328 328 330 328 329 330 324 318 318 319 319 320 324 327 324 323 321 317 316 314 315 317 317 318 320 321 321 320 319 318
304 304 305 304 305 305 306 307 308 308 309 309 309 308 308 309 310 313 314 314 315 316 316 316 316 318 319 321 321 319 320 320 320 320 319 320 320 320 321 320 321 322 322 323 324 325 325 324 324 325 325 325 326 326 326 328 330 329 327 327 328 329 327 323 321 322 324 327 323 319 328 337 333 329 327 323 321 318 315 313 315 317 319 319 319 319 320 319
303 303 305 305 305 306 307 309 308 308 310 310 309 308 308 310 310 313 315 315 315 315 315 316 316 317 319 321 321 319 321 321 320 319 319 319 319 320 321 320 320 322 321 322 323 325 325 323 324 325 325 326 326 327 327 327 329 329 328 328 327 327 325 322 322 327 330 330 323 320 329 337 333 330 330 327 326 324 318 314 314 316 317 317 318 320 321 321
303 304 305 305 306 307 308 310 308 308 310 310 309 309 309 310 311 312 314 315 315 315 315 315 316 318 319 321 321 321 323 322 320 320 319 319 319 319 322 322 321 321 320 322 325 326 325 324 325 326 326 327 326 327 327 326 329 329 327 327 326 325 325 321 322 330 331 324 322 323 325 329 329 328 328 325 325 325 322 319 316 314 315 317 318 319 321 322
304 305 305 305 306 307 309 310 309 309 310 309 308 309 309 311 312 311 313 316 316 316 316 315 316 318 319 320 321 321 322 322 321 321 319 319 320 320 322 322 321 322 320 321 326 326 324 324 325 325 326 326 326 327 326 326 329 327 324 324 323 323 324 321 322 330 327 323 327 326 321 326 332 331 328 324 325 326 325 324 320 315 316 318 319 320 320 321
305 305 305 305 306 308 308 309 310 309 309 309 309 309 310 312 311 312 313 316 317 316 316 316 316 318 320 321 321 320 321 321 322 321 319 320 321 320 321 321 320 322 321 321 326 325 323 324 324 324 326 326 328 329 326 327 328 323 322 323 322 322 323 321 324 331 329 329 332 326 323 330 333 332 330 325 327 328 324 324 321 318 318 319 320 320 320 321
305 305 306 306 307 308 308 309 310 309 309 310 309 310 311 311 311 313 315 316 317 317 317 318 317 318 321 322 322 321 320 321 321 320 319 320 320 320 321 321 320 323 323 322 324 324 322 323 323 324 325 325 327 326 324 326 326 322 324 326 325 326 327 327 329 332 331 331 331 327 327 331 332 333 333 328 329 327 324 325 322 318 318 318 319 320 321 321
305 305 306 307 308 308 309 310 310 310 310 310 310 310 311 311 310 314 316 315 317 319 319 318 317 319 321 321 322 322 321 321 320 319 320 320 320 321 321 322 322 323 324 323 323 322 322 324 324 325 323 322 325 324 322 323 323 325 330 330 329 329 328 330 330 329 330 332 329 326 327 330 331 333 332 328 326 324 323 324 324 320 318 319 320 320 321 320
305 306 307 307 308 308 309 310 310 310 310 310 311 310 311 312 311 314 316 313 315 319 320 319 319 319 321 321 322 322 321 321 320 320 321 321 321 322 322 324 324 325 325 324 323 322 322 324 324 323 322 321 326 326 322 322 324 327 329 329 331 329 329 332 330 329 331 329 323 322 325 329 329 328 328 327 325 323 320 318 319 318 316 319 321 321 321 320
306 307 308 308 308 309 309 309 310 310 310 311 310 310 311 313 312 314 315 313 315 318 319 319 319 319 320 322 322 322 322 321 320 320 321 321 322 322 323 324 324 326 327 325 324 324 323 323 322 323 324 322 325 326 324 324 326 327 326 328 331 330 332 334 331 330 332 327 320 319 323 328 328 327 326 325 323 322 319 316 317 317 317 320 321 321 320 318
307 308 309 308 308 309 310 310 310 310 310 311 310 310 312 313 313 313 314 314 314 316 320 320 319 320 320 322 322 321 322 322 320 321 321 322 323 323 323 324 323 325 327 325 324 325 326 325 323 323 325 324 324 325 325 324 325 326 326 329 330 330 335 336 333 333 330 324 319 319 324 330 332 330 324 318 316 316 316 317 317 317 318 320 319 319 318 316
308 309 309 309 309 310 310 310 310 310 310 311 311 311 312 313 314 313 314 314 313 316 320 320 319 320 321 322 322 321 322 322 321 321 322 322 323 322 323 324 323 323 325 325 325 324 327 328 324 322 322 323 324 323 322 324 326 326 327 331 331 331 334 331 327 328 328 326 324 321 324 327 328 326 320 315 316 315 314 314 314 316 318 318 318 318 317 317
309 309 310 310 310 310 310 310 310 310 310 310 311 312 312 314 316 314 313 315 315 317 320 321 320 321 322 322 322 321 321 322 321 321 321 322 322 322 323 323 323 322 323 324 325 325 326 326 323 322 322 322 323 322 321 324 327 326 327 329 327 326 331 329 322 321 325 329 328 324 325 326 325 324 322 322 323 320 317 314 312 315 318 317 318 318 317 318
309 310 310 311 310 309 310 310 310 310 310 311 311 312 312 313 315 314 313 315 316 317 320 322 321 321 322 322 322 322 320 320 322 322 322 322 322 322 322 323 322 321 322 322 324 326 327 325 322 323 325 322 320 322 321 321 324 327 327 326 324 323 328 330 326 324 326 329 328 325 324 327 328 327 327 327 324 322 323 320 313 312 315 315 317 318 319 319
310 311 310 311 310 309 310 311 311 311 311 311 312 312 311 311 312 312 313 314 316 317 320 322 321 321 321 321 322 321 319 321 322 323 323 323 323 322 321 322 322 321 320 320 323 326 326 325 322 322 324 320 318 322 324 320 319 323 324 323 326 328 327 328 327 327 327 328 329 325 320 323 326 325 326 326 323 327 331 327 321 316 312 313 317 319 319 320
310 310 309 310 310 310 311 311 310 310 310 311 313 311 309 309 310 310 311 313 314 317 319 318 318 320 321 321 322 320 319 321 322 323 323 323 324 323 321 322 322 321 320 319 322 324 324 326 325 321 321 321 321 323 326 324 319 320 322 323 326 328 327 327 328 327 327 327 329 327 322 324 324 320 322 323 321 325 328 328 327 319 312 315 318 318 319 320
310 308 307 309 311 310 311 311 311 311 311 311 312 310 308 309 310 309 310 312 312 315 318 315 314 319 321 320 322 321 320 321 322 323 323 322 324 324 321 321 322 321 320 320 322 323 322 325 326 321 319 322 324 324 324 325 322 321 325 325 325 324 325 329 328 326 328 328 329 329 326 327 326 319 319 320 319 320 321 323 323 316 313 317 319 318 319 319
308 307 305 308 311 310 311 311 310 310 311 311 310 307 307 309 310 310 310 311 309 310 312 312 313 316 318 320 322 322 322 322 321 322 323 323 324 324 322 320 321 321 320 321 322 322 322 324 323 321 322 324 325 323 322 324 323 323 325 325 325 323 324 329 328 326 327 327 328 328 325 328 331 322 316 317 318 317 317 317 316 314 315 318 318 318 319 318
308 306 305 309 311 310 311 309 306 306 309 309 307 306 307 309 310 310 310 310 309 308 309 310 310 312 315 319 322 322 322 322 321 321 323 323 322 323 323 320 320 321 320 321 321 319 321 324 322 321 322 322 321 319 319 322 323 323 323 324 326 324 323 327 328 326 327 324 323 324 324 327 329 323 317 316 315 314 313 313 312 314 317 318 318 319 319 318
306 305 306 308 310 310 309 307 304 305 307 307 306 306 307 308 309 309 310 311 310 310 310 310 310 311 312 314 317 321 323 322 322 321 322 322 321 321 322 320 321 320 319 321 320 317 320 323 321 321 320 318 319 319 318 321 322 322 323 324 325 323 323 325 325 324 327 325 323 325 326 326 328 325 314 308 308 309 310 311 311 313 316 317 317 318 317 316
304 305 306 308 309 308 308 307 307 307 306 306 306 306 306 306 307 308 310 311 311 310 310 310 309 310 310 310 312 316 319 321 322 322 321 322 321 320 320 320 321 320 320 321 319 318 321 322 321 322 322 321 322 322 322 322 322 323 322 322 323 323 323 324 322 322 325 326 325 326 326 326 332 331 317 310 313 311 308 309 310 311 315 317 317 317 316 315
304 304 305 307 307 306 306 306 307 307 306 306 307 307 307 306 306 307 309 310 309 310 311 310 308 308 309 309 310 312 313 316 320 322 322 323 322 320 320 320 321 320 320 319 317 319 323 322 321 323 325 325 326 325 324 323 322 322 323 321 322 323 322 323 323 322 323 324 324 325 325 325 327 327 321 320 324 319 311 310 310 312 314 316 317 317 315 314
305 304 303 304 304 303 304 305 306 307 307 307 307 307 308 307 306 305 307 307 307 309 311 309 307 308 309 309 311 312 312 314 317 320 322 323 322 322 320 320 321 320 319 318 316 320 324 322 320 323 324 324 326 325 323 322 322 323 323 322 322 322 321 322 323 323 323 323 323 323 323 323 325 325 324 325 326 323 317 311 310 313 315 315 316 317 316 315
305 304 304 304 304 304 305 305 306 307 307 307 308 307 307 308 307 306 307 307 306 308 310 308 307 309 310 309 312 312 311 313 315 318 321 322 321 322 320 320 321 319 318 317 315 320 323 321 320 321 321 321 324 324 322 322 322 322 323 322 321 322 321 322 323 323 322 322 322 322 321 323 328 331 330 327 323 321 317 311 310 313 314 315 317 316 317 317
305 304 303 305 306 306 306 306 306 307 307 308 308 307 306 307 307 307 307 307 306 307 309 309 308 310 310 310 312 313 312 313 314 315 319 321 321 321 322 322 320 318 317 317 316 318 321 321 320 320 321 322 325 325 322 321 322 322 322 322 321 321 321 321 322 321 321 322 322 322 322 322 325 329 330 325 318 315 315 312 311 313 314 315 316 316 316 317
304 304 303 304 305 306 306 306 306 306 307 308 308 307 306 307 307 307 306 307 307 307 308 310 309 308 309 309 311 313 313 314 314 314 315 318 321 322 322 322 320 317 317 318 317 317 320 321 320 319 320 322 324 324 322 321 322 321 322 322 321 321 321 321 322 321 321 321 321 322 324 321 319 322 326 322 315 312 313 313 312 314 315 315 315 315 315 315
303 304 304 304 305 305 305 305 306 306 306 307 307 306 306 306 306 306 306 307 308 307 308 310 309 307 308 308 310 312 312 312 314 314 313 316 321 322 322 322 320 318 318 318 317 318 320 321 320 319 320 321 321 322 322 322 322 322 322 322 321 321 321 321 321 321 321 321 320 321 322 321 317 317 318 318 316 316 315 313 314 315 315 315 315 315 314 315
304 304 304 305 305 304 304 304 305 306 306 307 307 306 306 306 306 306 306 305 307 308 307 308 308 308 308 308 309 311 311 310 312 313 313 315 318 318 319 321 321 319 319 319 319 319 320 320 319 319 320 320 319 321 322 321 321 322 322 321 321 321 321 321 321 321 321 321 321 321 321 320 318 317 316 316 316 316 316 315 315 316 316 316 315 315 315 316
305 305 305 305 304 303 304 304 305 306 306 306 306 306 306 306 305 306 306 305 305 307 306 306 307 308 309 309 309 309 309 310 311 311 313 314 314 313 314 317 318 319 320 320 319 319 320 319 318 318 320 320 319 320 321 321 322 322 321 320 320 320 321 321 321 321 320 320 321 321 320 320 319 318 318 318 317 316 316 317 317 317 317 317 316 316 317 317
Wind_Speed
32 31 30 30 30 30 30 30 30 29 29 28 27 29 31 30 29 29 27 25 25 27 33 36 38 41 41 39 34 28 24 24 27 29 35 36 35 32 28 31 28 26 29 26 23 22 23 22 20 18 15 14 11 10 10 6 7 6 3 2 2 3 3 5 6 7 4 3 7 10 11 8 6 9 10 8 10 13 12 11 11 13 14 9 7 6 8 19
32 32 31 31 30 30 30 30 30 29 29 29 28 30 32 31 29 29 28 26 26 26 30 35 38 39 40 37 35 32 24 22 25 31 35 28 27 32 30 32 28 24 28 28 26 26 26 25 23 20 17 15 11 10 10 6 5 3 3 2 4 4 4 5 6 8 4 2 9 10 10 10 10 13 13 8 7 10 9 8 9 11 11 10 11 9 12 20
33 32 32 31 30 30 30 30 31 30 30 29 29 31 32 32 30 29 29 27 27 26 28 33 38 39 38 34 30 30 27 20 23 34 34 24 25 31 30 33 30 24 26 28 28 28 28 27 25 21 19 15 10 10 9 6 4 1 3 3 5 4 3 5 5 9 7 4 10 9 8 11 10 14 13 8 7 6 7 9 10 11 13 12 12 12 15 21
34 33 33 32 31 30 30 30 31 31 30 30 30 30 33 34 31 31 30 28 27 27 28 31 35 35 35 38 32 29 29 21 24 34 30 25 29 31 28 32 31 24 25 27 27 28 27 25 23 21 18 12 9 10 8 8 7 2 3 3 5 4 3 5 5 7 8 8 12 10 7 8 10 12 11 9 7 3 12 18 15 13 15 15 14 15 19 22
34 34 33 33 32 31 31 30 30 31 30 30 30 31 34 35 33 32 31 29 26 27 28 28 33 33 33 40 38 31 25 12 16 27 28 26 29 33 28 28 31 25 25 27 28 28 26 25 23 21 15 8 8 7 7 12 10 4 4 3 4 5 3 4 6 5 8 11 12 10 7 7 10 9 11 13 8 7 15 20 16 12 13 13 13 16 21 24
35 35 35 34 33 32 31 31 30 30 31 31 31 31 33 36 35 32 32 30 27 27 28 29 31 31 33 35 36 32 23 9 2 10 25 27 26 32 30 28 31 28 28 29 29 28 25 26 24 19 13 6 9 8 7 13 10 4 3 3 4 4 2 5 6 4 7 11 12 11 8 9 9 6 10 16 15 12 11 13 13 12 11 11 12 16 22 24
37 36 35 34 34 33 32 31 31 31 31 31 31 32 33 36 36 34 33 31 28 27 28 32 30 31 35 30 31 30 28 29 14 4 11 18 22 29 30 30 32 29 30 31 30 28 26 27 25 21 13 5 9 9 8 13 9 5 2 2 5 4 4 6 6 4 5 8 10 10 8 9 9 5 6 15 21 15 9 8 11 13 13 13 14 16 19 21
38 37 36 35 34 33 33 32 31 31 31 32 32 33 34 36 37 35 34 31 30 27 26 32 31 34 37 29 28 25 30 45 36 15 8 7 12 22 29 31 32 29 31 33 31 29 27 29 28 22 13 6 11 10 9 10 4 5 4 2 4 4 4 6 7 5 4 5 7 8 7 8 9 5 5 14 19 15 11 10 9 11 15 16 17 18 19 21
39 38 37 35 35 34 33 32 32 31 31 33 33 34 34 35 37 36 34 33 31 28 27 30 31 35 36 32 27 20 36 54 46 35 26 16 13 15 28 32 32 30 31 33 31 29 29 31 31 25 14 10 13 11 13 11 2 8 10 4 3 5 5 5 7 6 5 5 4 3 4 5 7 4 7 17 18 13 13 14 12 12 15 18 19 20 19 21
40 40 38 36 35 34 33 33 32 32 31 33 34 35 35 35 36 37 35 33 31 29 28 29 31 34 33 32 24 16 41 56 47 46 40 30 21 16 28 34 34 33 31 33 31 30 31 30 31 27 15 10 11 9 13 11 3 10 14 8 5 7 7 6 7 6 4 5 4 4 4 6 5 3 6 14 15 14 15 15 15 15 16 19 20 22 21 21
41 41 39 37 36 34 33 33 33 33 32 33 34 35 37 36 35 37 36 33 32 30 28 29 30 32 32 33 28 21 40 50 44 44 42 37 30 21 29 36 35 35 33 33 32 30 31 30 31 25 10 7 11 7 10 9 3 8 13 7 5 5 6 7 7 7 4 3 7 6 5 8 5 4 10 16 13 13 16 16 17 18 18 20 21 23 24 23
41 40 39 38 36 35 33 32 33 33 33 35 35 36 38 37 34 35 37 34 32 31 30 29 30 33 32 31 37 35 40 48 43 37 34 36 36 28 29 37 37 37 35 35 34 31 30 30 32 25 9 8 11 4 8 12 6 6 10 5 2 2 4 9 8 6 6 2 5 3 4 9 7 8 16 20 16 13 14 16 19 20 21 22 23 24 25 25
40 39 38 37 36 35 34 32 32 32 33 35 36 38 39 38 34 35 36 35 33 32 31 30 30 34 32 30 42 43 38 43 43 41 36 31 33 29 29 38 40 39 37 37 35 32 33 31 31 25 12 12 11 4 7 13 8 4 5 3 1 2 5 11 10 6 6 2 5 6 3 10 8 12 22 23 21 17 15 16 19 22 23 23 24 25 27 27
38 38 37 36 36 35 34 33 32 31 32 35 37 39 40 38 34 34 36 35 33 32 32 31 29 34 38 33 35 40 42 39 35 42 42 29 24 23 30 39 42 43 39 37 36 33 34 31 30 24 13 13 12 7 6 6 5 3 2 1 1 2 4 7 10 10 6 4 8 9 5 10 4 8 18 20 24 24 21 20 20 22 25 26 27 27 28 28
38 38 36 36 35 34 34 33 32 32 32 34 37 39 41 38 34 34 36 35 33 32 32 30 29 31 32 27 25 31 43 42 34 39 42 32 24 21 30 40 41 42 37 34 35 33 33 30 26 19 12 13 13 9 5 2 1 3 3 2 2 4 4 5 7 15 10 5 10 10 4 8 4 8 13 15 22 25 25 25 24 25 26 27 28 29 29 29
39 38 37 36 35 34 33 32 32 32 32 33 35 39 40 37 33 34 34 35 33 31 31 28 32 31 18 14 24 27 33 42 41 41 42 37 33 28 29 38 38 37 34 32 33 32 30 26 21 16 12 10 8 6 4 2 1 3 4 3 4 6 3 4 4 14 15 6 8 9 6 4 2 4 6 7 15 21 23 25 26 28 28 29 30 30 31 30
40 39 37 36 35 34 33 33 32 32 33 33 35 38 38 35 33 33 33 34 31 30 32 29 33 34 18 10 23 29 32 39 41 41 45 44 39 31 29 35 35 34 32 27 27 30 26 22 16 11 9 6 5 6 5 6 5 4 2 1 5 5 4 3 4 7 13 8 7 9 9 8 5 3 2 1 5 13 19 22 25 27 29 31 32 32 33 31
39 39 37 36 34 34 34 33 32 32 33 34 36 37 35 32 30 30 31 30 29 27 28 32 32 23 13 18 29 34 41 40 37 40 44 44 35 30 32 31 30 33 30 20 19 26 22 15 11 5 4 5 7 10 9 8 8 7 6 4 4 3 4 6 3 4 10 8 8 8 9 14 11 11 15 13 7 8 15 18 22 27 29 31 33 34 35 35
39 39 37 36 34 34 33 33 33 33 33 33 35 34 30 28 27 29 30 29 28 21 16 25 33 17 5 21 36 35 43 43 37 35 34 35 29 28 32 26 27 34 28 16 15 23 18 8 7 6 9 11 11 13 8 8 12 12 12 8 6 4 5 5 4 5 9 7 8 10 12 15 12 10 19 25 15 11 17 18 20 24 27 30 33 36 37 38
38 38 37 36 34 34 33 33 33 33 34 33 34 31 26 25 19 18 28 34 37 31 20 24 41 37 11 15 34 30 34 38 34 32 30 34 31 27 29 23 25 28 20 14 13 20 19 8 8 12 12 13 12 11 6 7 11 11 10 8 6 5 5 4 4 5 6 5 7 12 12 13 12 10 16 23 15 12 19 20 21 23 24 28 32 37 40 41
37 37 36 36 35 35 34 33 33 34 35 34 37 34 30 31 18 17 30 32 42 47 35 26 34 40 16 10 33 37 33 30 30 34 31 34 31 23 25 22 16 15 16 18 14 14 16 10 15 16 12 12 12 11 6 6 9 8 8 7 6 6 5 4 4 4 4 4 5 6 9 12 12 11 15 17 11 14 22 21 22 24 24 27 30 35 39 41
37 37 37 37 35 35 34 34 34 35 35 35 40 38 38 45 33 30 34 20 34 53 46 36 27 27 22 14 31 41 33 25 26 34 32 31 28 20 21 19 11 9 13 17 12 10 12 14 17 15 11 12 11 12 9 6 8 8 7 6 5 5 2 3 3 3 2 4 3 2 5 10 11 11 14 16 16 21 27 26 27 28 27 29 31 33 35 37
37 37 37 37 36 36 34 35 35 34 37 38 44 44 44 51 36 25 28 11 18 43 45 44 30 20 27 22 29 38 29 20 21 29 34 33 28 23 20 15 11 10 12 14 13 14 12 13 16 15 14 15 12 13 10 6 6 6 7 6 5 5 4 3 3 2 1 2 1 1 4 7 8 8 11 19 25 26 28 29 31 31 31 33 34 33 33 35
38 37 36 36 36 36 35 35 34 36 42 42 47 50 46 48 36 21 23 7 3 24 38 44 32 20 27 26 33 40 31 28 28 30 36 36 31 25 19 18 15 9 11 17 19 17 8 7 17 15 13 16 13 12 11 7 6 5 7 7 5 5 5 4 2 1 2 2 1 2 5 7 6 8 10 13 16 19 24 26 28 32 35 35 33 33 35 36
38 38 36 36 35 36 35 34 38 41 44 46 49 51 44 42 38 27 20 5 2 12 25 35 30 22 23 25 34 38 27 28 36 40 42 42 38 24 16 22 17 8 14 19 17 13 5 13 23 15 11 15 13 11 12 9 6 5 6 8 7 7 6 4 4 4 3 4 3 2 2 6 4 6 9 6 4 10 14 15 23 33 35 33 33 36 37 37
38 38 36 36 36 36 35 35 43 45 44 49 50 48 44 39 39 32 16 2 4 6 11 23 24 20 21 21 33 36 18 14 31 47 49 45 44 29 14 16 11 10 16 13 9 5 3 13 21 15 13 15 11 10 11 10 7 4 5 8 6 6 7 6 6 4 2 4 3 2 4 6 6 5 8 6 5 10 8 9 20 29 30 30 34 38 39 39
37 38 37 38 37 37 39 39 45 46 46 51 50 47 44 37 38 33 12 0 6 7 11 17 18 18 20 20 34 28 9 13 23 40 51 46 44 31 12 10 9 10 12 7 6 4 6 14 17 16 16 13 12 11 10 12 8 3 4 10 7 6 8 7 7 4 2 3 3 4 3 3 6 6 6 4 6 11 9 10 16 22 26 29 32 37 39 41
37 37 37 39 40 41 44 42 43 50 53 53 52 50 42 37 38 28 7 3 7 9 8 12 14 18 19 25 37 21 13 30 21 26 51 49 42 29 10 12 13 9 13 12 9 7 11 17 17 18 16 11 10 7 9 12 5 2 2 9 7 6 6 5 5 3 1 2 2 3 2 1 7 7 4 2 4 10 12 12 12 17 26 29 31 33 34 37
37 37 39 40 41 42 45 43 45 53 55 50 50 49 42 41 35 16 2 5 6 7 8 14 16 18 18 22 30 19 17 28 16 24 47 44 42 30 10 16 16 11 15 11 4 3 6 14 18 16 11 8 6 5 10 10 3 2 5 10 7 5 5 3 3 3 3 0 5 4 3 1 6 6 2 0 4 10 12 10 10 16 23 25 27 28 28 30
38 39 40 41 40 42 44 43 45 50 50 47 47 48 46 40 22 6 7 5 3 5 10 16 16 18 21 15 15 15 15 14 16 29 33 30 38 29 11 16 15 10 9 3 3 1 2 10 15 11 10 9 8 5 7 9 8 7 7 8 7 5 5 3 2 4 2 3 5 7 6 3 4 5 4 4 5 7 7 7 9 12 16 18 19 19 19 21
39 40 41 42 43 44 45 44 44 48 49 46 46 49 42 24 6 5 9 3 3 5 8 12 16 19 21 15 9 12 14 9 19 28 17 15 24 18 10 10 7 6 4 3 2 2 2 10 8 7 14 16 11 4 4 9 11 8 5 5 5 3 3 2 3 2 4 5 3 7 7 5 5 7 3 5 6 5 6 7 7 9 13 14 12 10 12 14
40 41 41 43 44 45 49 49 47 50 50 48 49 45 28 9 4 7 4 3 4 7 8 11 15 16 19 18 11 12 13 9 16 23 16 12 12 11 12 10 9 9 6 8 6 0 2 8 5 6 16 21 14 5 4 5 7 5 5 6 5 2 1 2 2 2 4 3 0 5 5 3 10 9 6 10 11 9 10 11 12 12 14 14 12 14 19 21
40 41 41 43 44 47 51 49 49 51 50 54 50 33 14 6 8 10 4 2 2 4 9 14 17 19 19 18 13 13 13 10 17 21 17 16 13 14 16 14 16 11 6 13 12 6 5 5 4 6 8 16 17 10 5 5 8 8 8 9 7 4 4 6 4 1 2 0 2 2 2 2 8 7 8 13 15 15 15 16 18 19 19 22 23 25 24 23
40 41 41 42 44 48 51 48 50 53 53 56 41 17 10 8 9 13 9 3 3 2 10 15 18 20 20 17 12 13 12 9 18 20 16 16 13 12 14 14 17 9 3 8 6 7 9 5 9 11 8 15 18 15 13 8 9 10 6 6 5 4 5 5 3 2 2 2 2 1 2 4 5 4 6 10 14 19 21 21 20 21 23 26 27 26 24 23
40 40 40 42 45 49 51 50 53 56 57 48 24 8 11 8 6 13 10 4 2 3 8 13 18 18 17 14 12 16 12 8 18 18 14 16 13 13 14 13 19 13 7 9 4 6 10 5 7 8 7 18 18 12 13 12 7 6 4 4 4 4 4 3 2 3 5 2 1 2 3 4 4 9 13 13 14 16 20 20 18 21 23 23 24 25 25 22
39 40 41 43 48 51 53 53 55 60 57 36 11 7 11 7 4 7 7 5 3 6 13 13 14 14 14 11 10 16 11 6 18 17 11 16 15 17 17 13 20 19 13 13 7 7 10 7 9 8 6 16 16 10 12 13 8 3 4 6 4 3 6 5 1 2 5 3 3 3 6 5 4 11 13 12 13 13 13 13 15 20 20 20 23 24 21 17
39 42 43 45 51 53 53 55 57 62 53 25 9 9 7 5 3 3 5 8 5 8 14 11 10 11 12 9 9 15 9 5 16 15 10 14 12 16 19 12 18 21 16 13 5 3 6 4 7 11 10 13 16 16 10 8 9 5 6 7 3 3 3 4 2 2 3 4 3 3 7 4 3 7 6 5 9 12 10 7 10 17 17 19 23 20 15 15
41 45 42 42 51 54 53 55 59 59 39 15 10 9 3 3 2 1 3 7 6 7 10 8 8 10 12 11 10 15 11 8 14 13 10 12 8 16 21 13 17 23 17 13 5 1 5 4 2 4 7 6 9 13 7 2 4 5 6 7 4 2 2 2 4 3 3 4 4 3 4 4 7 8 5 6 8 8 8 6 6 10 14 18 21 17 15 18
44 39 28 36 50 53 53 57 60 50 22 7 11 9 2 2 1 1 3 5 6 7 8 4 2 6 11 13 12 14 13 11 13 11 10 10 6 14 22 15 16 24 21 15 8 3 5 5 1 3 2 6 5 6 9 6 1 4 6 6 2 2 4 4 3 2 4 5 3 2 3 4 8 7 7 13 13 9 8 7 5 9 13 16 17 16 17 19
44 25 14 37 52 51 57 58 49 33 12 5 9 6 2 2 2 0 3 5 4 2 4 2 1 5 10 14 14 13 12 12 15 11 9 11 9 12 21 17 14 22 23 14 8 5 3 3 3 1 1 6 8 8 13 14 7 5 8 8 5 3 1 2 2 2 4 4 3 2 3 6 6 5 10 16 15 12 11 8 8 12 16 18 20 20 20 19
38 13 8 40 53 53 59 46 23 13 7 4 4 2 2 3 3 3 2 5 4 4 4 5 3 3 5 10 13 12 10 11 14 11 6 12 12 9 19 23 17 20 19 9 6 7 4 4 6 5 4 9 11 9 11 15 13 10 9 7 8 6 3 3 5 2 3 3 4 4 5 7 5 5 9 13 11 10 11 10 10 16 23 25 22 20 19 18
27 7 11 40 54 58 52 21 2 5 4 4 5 4 5 3 3 4 1 4 4 3 5 6 4 2 1 2 7 12 12 8 12 12 7 13 15 10 22 34 30 26 20 12 12 9 3 4 7 6 4 5 4 2 1 7 10 7 6 6 5 4 5 7 9 4 3 2 2 3 4 7 5 4 6 8 8 9 12 12 12 19 26 24 20 16 15 14
18 11 19 40 52 57 39 6 1 5 1 6 9 5 4 4 3 3 1 2 2 2 4 4 2 2 1 2 0 9 12 9 14 15 9 13 17 15 25 37 34 28 19 12 12 6 3 5 7 4 1 3 4 5 6 3 7 5 6 7 7 9 10 7 5 4 4 4 3 2 6 7 5 2 3 7 8 10 15 15 16 21 23 20 17 13 11 13
21 19 21 35 45 44 23 2 5 7 3 8 9 4 4 4 3 3 1 1 1 2 4 3 2 2 1 2 3 3 6 5 12 17 10 11 15 15 27 39 33 23 17 15 16 12 7 8 9 7 3 3 3 2 4 2 4 7 9 9 12 14 9 3 1 2 3 8 8 6 9 8 5 4 3 5 6 8 13 14 15 19 18 14 11 9 12 15
22 16 14 24 32 25 9 1 6 8 8 10 8 5 5 4 4 3 3 2 2 3 4 3 4 5 4 4 4 3 1 1 7 13 9 7 7 6 23 40 34 22 20 21 20 13 6 8 11 11 10 8 8 10 10 10 9 9 12 15 17 18 15 10 5 3 6 8 10 10 9 4 4 5 5 6 6 6 9 8 9 13 13 10 7 9 15 16
13 6 6 11 14 9 4 5 8 7 8 10 7 4 5 5 3 4 4 2 2 3 4 3 5 7 5 4 3 3 1 2 1 7 9 9 4 2 22 40 35 27 23 22 24 13 3 6 13 13 16 18 17 18 18 18 15 11 15 19 20 20 20 14 8 8 11 7 8 15 8 3 4 7 6 7 7 6 6 6 7 7 7 6 6 9 13 14
7 4 4 5 5 4 5 7 8 6 6 7 5 2 5 7 4 3 5 2 2 3 3 3 5 6 5 6 4 2 1 2 3 3 9 11 3 2 23 35 31 30 25 21 26 17 3 7 14 15 19 15 6 6 10 15 18 17 20 22 19 17 16 13 13 15 9 6 10 14 7 3 6 7 8 10 6 4 6 7 7 4 3 3 4 6 9 12
5 6 5 7 5 3 5 7 7 7 7 5 3 3 6 8 5 3 3 3 2 2 3 2 5 7 9 10 5 2 3 0 2 2 4 8 5 4 15 21 21 29 25 16 20 15 3 10 15 14 16 7 5 9 13 14 17 18 20 22 19 18 16 16 21 17 7 7 16 10 9 8 10 6 11 11 5 4 6 7 5 4 4 4 5 8 10 12
9 10 8 9 6 4 9 11 10 9 8 5 4 3 6 9 7 3 2 3 2 2 1 3 6 7 9 11 7 4 5 3 3 2 2 5 9 9 11 11 12 20 20 11 11 9 5 8 10 10 9 4 4 10 15 15 14 13 15 17 18 21 23 23 26 22 14 14 19 9 9 14 14 10 13 13 9 8 6 6 6 5 5 7 9 12 13 13
9 9 9 12 10 7 9 8 8 9 5 3 4 3 4 8 8 4 3 2 2 1 0 3 7 8 9 11 8 7 9 8 6 4 2 3 8 9 10 9 7 10 13 11 8 7 8 7 9 9 6 3 4 8 13 17 16 14 14 14 14 17 20 21 22 19 14 17 22 15 12 15 12 10 12 16 22 20 12 11 12 12 13 13 14 16 15 15
17 18 20 18 8 5 7 4 4 7 3 2 3 3 4 7 9 8 5 4 3 3 3 5 8 8 8 10 9 8 9 11 11 11 8 4 3 3 3 6 12 13 12 11 9 8 9 7 7 9 7 5 6 9 14 17 15 14 14 14 16 16 17 18 20 18 16 20 24 18 15 16 9 8 9 16 22 21 17 18 20 22 26 25 24 24 24 23
26 26 29 23 7 2 6 4 3 5 2 1 3 3 4 6 6 6 5 4 5 5 5 7 7 6 6 8 10 6 6 12 17 20 17 8 1 5 6 2 13 17 13 12 10 8 9 8 7 9 10 9 8 11 13 12 9 10 14 18 22 22 21 21 21 21 21 19 18 15 16 14 6 9 10 13 14 16 20 26 30 31 32 31 30 30 31 31
Wind_Direction
230 230 229 230 230 228 229 231 233 234 234 231 226 226 225 223 224 221 220 225 229 228 228 233 232 230 233 239 244 248 260 255 244 242 236 233 227 217 210 207 203 197 197 196 192 192 189 188 188 186 183 179 182 180 173 176 168 164 133 123 211 187 197 188 179 189 166 185 191 184 184 159 153 172 169 162 162 161 164 188 196 201 215 223 210 226 208 191
228 229 228 228 230 228 228 230 233 233 233 232 225 226 226 224 225 222 220 219 224 227 225 231 234 232 231 236 243 244 253 258 252 250 242 234 223 218 214 205 198 195 197 197 196 195 194 192 189 186 182 177 180 178 172 165 156 147 112 158 222 197 204 200 182 187 172 170 178 181 190 172 168 172 163 163 169 163 165 186 191 199 211 203 198 214 203 193
226 227 227 228 229 228 228 228 231 232 232 231 225 225 227 224 225 223 221 217 220 223 221 226 232 234 231 231 238 239 246 260 258 251 241 229 218 217 218 209 196 187 193 198 201 201 203 201 191 184 179 175 179 181 181 177 174 147 120 180 240 216 205 220 201 191 198 188 165 169 190 185 178 171 171 180 176 181 196 197 196 202 207 203 206 209 197 195
225 226 226 227 227 227 227 226 229 231 231 230 225 223 227 225 224 224 222 218 218 220 218 219 225 230 228 228 230 234 245 265 269 254 237 226 222 214 215 214 201 185 188 198 202 205 208 204 191 182 176 169 172 180 184 184 185 178 154 188 232 202 168 209 201 182 191 179 165 165 168 187 184 176 186 176 152 247 229 213 214 219 215 207 208 203 195 196
224 226 226 225 226 225 226 226 226 229 230 229 224 221 225 225 224 224 222 219 218 217 215 215 219 222 225 228 229 235 244 267 279 256 236 229 225 214 211 212 203 189 187 196 200 202 206 200 187 178 173 160 156 170 197 189 177 169 207 223 203 182 154 191 187 158 166 165 163 161 150 176 183 190 205 184 172 231 228 222 223 229 228 219 212 200 195 198
224 225 225 225 224 225 225 225 225 226 229 229 224 220 223 226 224 223 223 220 218 214 211 214 218 221 226 230 231 234 232 227 283 240 229 231 229 218 210 203 199 192 189 196 199 199 200 191 183 174 165 156 166 175 195 187 180 181 232 238 181 190 201 186 180 162 168 169 167 166 165 171 174 208 219 202 210 227 236 237 229 233 238 228 216 201 198 201
223 224 225 224 223 224 224 224 224 224 227 228 224 219 221 225 223 223 223 220 218 214 211 213 216 221 224 224 229 231 228 230 226 171 215 220 224 221 212 201 196 194 192 198 200 197 195 185 181 176 163 152 182 191 186 180 184 182 227 249 195 221 238 193 178 172 180 179 173 169 173 178 181 202 218 219 227 235 251 237 221 230 233 222 212 208 208 208
222 224 224 224 223 223 223 223 224 222 224 226 223 219 221 223 223 224 223 221 218 214 212 211 213 220 222 217 219 223 229 231 223 217 244 227 224 224 218 206 194 196 196 199 202 197 193 186 184 180 169 178 188 189 170 165 188 191 212 258 195 225 229 192 183 177 178 173 164 168 182 192 197 201 225 234 233 234 236 220 211 221 223 220 216 215 215 213
221 223 224 224 223 223 223 222 222 222 222 223 221 218 220 222 223 224 222 221 217 214 212 207 212 220 222 218 212 219 235 233 225 227 240 250 266 248 228 211 194 198 199 201 204 199 194 189 188 185 184 188 179 180 168 164 230 206 208 225 197 228 221 197 196 182 175 182 168 187 221 219 211 222 253 241 234 230 227 223 224 223 220 220 220 220 218 217
220 222 223 224 223 223 223 222 221 222 221 221 219 216 220 221 221 224 223 221 216 215 212 205 210 214 212 209 199 219 238 235 234 236 238 243 260 259 232 215 197 198 200 201 204 203 199 193 192 190 190 180 164 171 172 174 225 196 203 218 214 230 224 208 211 205 195 207 212 214 248 258 223 198 248 241 233 230 225 226 229 228 229 226 223 222 221 222
220 221 222 223 224 223 222 222 222 222 221 219 218 214 219 222 220 222 223 220 216 214 212 208 209 207 202 200 197 220 235 232 236 240 243 244 247 249 231 217 203 199 200 200 201 204 203 200 195 188 187 172 159 161 176 186 201 180 190 203 214 231 231 210 210 223 219 233 229 220 268 273 242 190 236 238 235 236 229 229 230 229 231 229 226 223 222 224
219 220 221 223 224 224 223 224 222 222 221 218 217 212 216 222 218 219 221 220 217 214 212 208 208 207 200 199 211 225 231 231 237 241 245 242 241 247 232 221 211 200 200 201 199 202 203 203 196 190 185 160 147 133 198 190 159 158 177 181 222 298 274 225 213 215 201 229 220 191 315 270 233 218 238 241 241 241 232 230 231 230 230 228 226 226 225 225
218 218 220 221 222 224 224 224 222 223 220 216 215 210 213 222 216 215 219 218 217 214 211 209 212 214 202 204 224 230 231 235 240 241 242 237 238 243 225 221 217 203 202 204 200 198 200 204 201 195 180 160 149 123 187 179 155 146 168 168 175 340 289 228 210 192 181 213 182 146 285 256 232 233 239 243 238 234 228 227 229 229 229 226 225 227 229 227
216 217 218 220 221 222 223 223 222 222 220 214 213 209 213 221 215 213 216 216 217 214 211 211 215 214 204 208 228 233 230 231 235 236 236 229 231 236 216 215 215 204 204 207 202 197 198 202 202 194 176 165 153 119 125 146 157 133 115 118 147 195 275 235 197 173 172 222 175 149 256 254 242 240 239 239 232 227 225 225 226 227 227 227 227 227 231 230
215 216 217 219 219 221 222 222 221 221 219 214 212 209 213 220 214 211 214 214 216 214 212 214 218 212 201 205 221 227 225 223 225 230 229 223 229 236 214 211 212 204 201 205 202 196 196 199 196 182 158 154 143 120 105 81 150 145 151 192 183 204 269 293 198 178 185 210 172 160 251 264 267 249 241 236 227 223 223 224 224 226 228 229 229 229 232 234
216 217 218 218 218 220 221 220 220 219 217 214 210 208 215 220 214 210 214 214 215 214 212 217 219 213 201 201 207 208 214 219 224 225 221 222 234 240 222 213 211 202 198 201 201 196 193 193 186 168 149 149 144 121 112 125 200 197 183 170 197 212 238 310 243 194 189 168 174 198 242 277 301 244 234 233 228 222 223 227 226 226 228 229 230 230 231 234
217 219 219 218 218 220 220 219 218 217 215 212 209 210 215 219 212 210 212 213 218 217 215 219 217 215 219 199 192 193 202 214 220 217 216 223 236 239 227 215 205 196 191 190 191 188 183 179 173 166 159 156 154 140 155 196 193 181 173 185 225 216 189 217 284 213 185 164 196 218 242 249 245 265 268 222 219 220 223 231 234 231 231 231 231 231 232 233
217 218 219 217 217 218 219 219 217 216 214 209 208 210 214 215 211 212 212 211 214 216 220 223 216 216 221 192 190 197 202 207 209 208 213 221 232 232 219 209 195 186 179 172 175 175 171 169 162 151 168 172 172 175 191 195 170 163 178 215 234 209 201 211 249 205 171 181 213 210 244 250 248 268 270 262 245 233 238 241 242 240 237 235 234 233 234 233
215 216 218 217 216 217 218 218 215 214 211 208 208 209 211 209 208 213 214 208 206 207 211 212 208 213 251 199 198 200 200 203 201 198 207 213 216 211 202 198 187 175 163 162 178 174 165 151 160 176 189 190 186 188 188 160 162 174 183 198 202 193 227 222 239 221 167 172 215 212 234 247 247 256 259 258 255 254 260 258 251 246 243 241 238 237 236 235
214 215 216 216 216 216 217 217 214 211 209 207 206 203 200 195 195 204 204 205 209 210 206 203 207 215 234 188 191 188 187 196 193 187 199 207 201 191 188 191 186 174 164 167 176 176 170 159 193 198 193 185 181 183 167 138 164 175 181 199 201 198 240 226 233 241 171 164 220 220 232 248 249 249 251 255 262 262 259 257 252 249 247 245 242 241 239 238
213 215 216 215 215 215 217 216 212 209 207 207 203 198 193 188 185 185 187 201 215 214 214 215 214 218 223 163 186 184 170 177 188 188 197 202 194 183 184 189 185 183 182 165 146 160 173 194 209 198 183 172 173 179 162 140 162 172 180 197 206 204 242 235 228 256 183 188 244 231 242 254 251 254 258 259 264 258 252 251 251 250 248 247 246 245 243 241
213 215 215 214 214 215 217 214 211 208 204 207 205 200 199 195 193 193 186 193 216 213 215 218 222 222 220 198 189 185 168 162 176 182 189 189 180 173 179 186 190 192 177 155 135 148 184 216 205 180 162 159 167 180 174 160 166 179 181 184 209 195 232 274 275 312 182 197 261 250 248 258 255 257 262 256 249 252 252 251 252 252 250 248 247 247 246 244
214 215 215 214 214 214 215 213 209 206 203 208 206 203 204 198 192 194 190 182 217 213 213 216 220 212 204 195 180 178 169 162 161 168 181 180 173 177 177 180 198 190 169 163 163 171 197 214 182 156 153 157 168 181 176 171 175 188 181 176 211 174 151 243 276 330 189 185 232 259 278 270 259 258 260 251 246 251 255 254 255 254 251 251 250 250 249 246
214 214 214 214 215 214 213 211 208 207 205 205 207 206 205 199 193 187 184 175 259 212 214 216 219 214 196 182 178 180 175 172 167 165 180 179 173 183 183 184 197 189 180 183 178 181 193 154 145 144 152 158 167 181 179 183 190 206 193 186 202 172 164 196 176 55 348 328 6 29 316 286 249 244 252 252 248 250 252 252 254 253 251 252 252 250 250 248
213 214 215 213 214 213 210 209 208 208 204 204 207 208 204 197 194 185 174 174 321 205 212 214 222 234 209 181 180 183 177 179 177 172 182 185 180 181 185 188 194 191 193 190 181 188 191 140 143 144 155 162 171 186 187 185 191 217 206 192 194 179 170 152 125 89 40 312 309 43 294 283 286 255 252 264 274 256 249 245 249 250 249 248 247 247 247 248
213 214 215 212 212 210 206 206 206 205 202 204 207 205 202 195 193 189 168 147 246 181 180 199 213 228 216 190 174 176 178 186 180 177 184 191 187 183 182 183 193 203 192 187 183 194 198 158 151 153 163 166 180 193 186 177 183 220 194 177 181 163 157 153 144 126 126 238 293 59 186 265 312 281 255 259 263 261 255 241 245 249 248 245 244 246 246 246
214 215 214 212 210 205 202 202 202 201 199 203 204 201 197 190 191 191 169 82 222 160 149 182 192 199 207 189 169 169 168 152 162 176 181 185 185 184 188 178 185 203 176 163 203 182 157 165 157 163 169 170 193 197 185 178 179 232 180 157 153 139 158 175 159 151 184 199 329 16 134 259 291 268 263 266 266 270 263 249 247 246 245 244 244 245 246 246
214 214 214 212 208 205 203 201 199 198 198 198 199 196 190 183 185 184 175 243 182 135 145 175 180 185 191 183 177 176 148 147 149 178 180 181 181 178 194 194 181 180 167 172 203 171 157 172 165 165 172 181 194 178 167 174 174 273 145 128 132 133 148 169 151 140 61 108 268 308 105 238 274 269 291 325 266 265 258 251 248 242 241 242 244 246 247 249
214 213 213 210 208 206 204 201 200 199 198 195 192 189 183 178 178 170 222 241 151 126 149 165 178 176 165 175 186 183 154 154 155 172 174 177 180 176 192 202 183 163 174 179 186 154 158 174 167 160 171 186 163 124 160 169 162 194 117 90 87 86 90 99 133 121 51 340 224 224 148 192 272 256 233 69 238 250 256 252 245 243 242 242 244 247 250 252
213 212 211 208 206 206 202 201 203 200 196 192 186 181 175 172 168 169 221 217 120 138 144 152 166 160 153 169 192 178 160 157 142 154 167 173 177 178 179 189 178 153 169 132 92 213 78 143 158 164 179 165 119 112 158 152 139 135 105 81 77 53 56 62 51 89 94 261 221 196 171 134 289 262 204 202 228 235 249 259 258 253 248 246 250 254 257 260
212 211 208 206 205 203 198 197 200 197 193 188 179 172 167 163 168 211 201 159 95 150 140 148 158 156 161 174 191 169 158 148 139 148 164 171 173 178 164 168 166 133 142 96 110 296 66 134 157 185 174 147 115 111 125 136 149 131 97 111 103 49 31 38 5 71 199 242 213 184 163 139 235 256 230 237 259 245 231 250 267 266 260 254 246 256 272 278
210 208 207 204 203 202 197 195 195 191 188 183 173 164 158 160 215 210 194 105 153 177 159 152 158 163 169 175 190 176 155 146 150 154 164 167 169 180 176 177 169 152 161 176 174 30 141 171 174 168 165 152 138 131 88 131 171 141 116 142 138 140 180 189 209 189 207 253 309 174 143 159 237 254 269 264 265 253 233 237 247 255 266 269 264 273 281 278
207 206 205 202 201 201 198 194 189 185 182 176 168 159 163 201 197 197 214 165 196 195 158 156 163 166 168 176 191 180 162 151 159 162 164 168 174 181 187 190 180 177 175 173 173 154 167 220 181 145 162 162 156 159 165 172 184 173 160 169 172 168 187 197 192 154 191 359 9 178 131 281 264 270 256 250 259 264 263 259 256 258 266 275 279 279 279 272
203 202 202 201 200 199 196 192 185 182 176 169 163 158 186 204 187 191 203 203 255 214 157 159 162 164 172 182 184 173 170 159 162 165 164 170 179 181 187 191 188 193 101 146 177 168 170 210 185 172 176 174 173 178 175 155 172 188 174 167 179 181 193 192 175 163 154 73 1 254 212 203 213 260 252 249 264 272 275 273 267 265 264 270 275 273 274 269
200 201 199 198 198 196 193 188 183 179 172 165 163 177 190 189 182 193 195 183 237 187 148 157 158 163 179 184 179 181 182 164 164 168 169 175 179 180 182 185 188 184 134 152 181 174 186 220 184 171 164 175 181 176 153 135 161 198 149 154 214 196 152 110 137 160 126 108 243 212 238 215 217 280 282 274 269 265 266 267 266 264 262 265 268 268 268 261
199 198 195 192 192 194 190 184 181 176 169 163 166 193 192 198 180 187 180 159 194 157 143 157 164 166 179 179 181 191 197 172 165 166 175 181 182 184 184 184 185 181 171 173 166 165 191 199 169 146 140 181 177 147 153 159 159 169 163 184 210 146 117 105 147 44 81 185 227 210 252 287 312 286 281 279 274 268 260 257 258 260 261 263 262 265 262 240
194 190 186 184 188 192 187 181 177 172 168 167 183 188 195 218 180 150 159 152 170 164 149 159 175 170 175 177 180 186 186 157 165 167 173 180 185 187 186 183 184 188 186 178 172 187 177 165 177 160 153 186 170 143 161 175 144 145 192 186 135 90 91 103 141 26 65 217 262 248 242 268 285 268 294 316 283 276 272 262 261 261 259 256 255 257 247 221
181 175 176 178 185 188 183 178 174 169 168 171 189 187 182 213 182 87 174 151 143 175 168 161 174 177 177 177 177 180 174 158 171 171 166 178 189 183 182 178 183 193 191 169 165 240 136 97 303 190 149 165 155 143 160 211 146 147 170 165 140 164 207 152 160 176 179 222 275 287 265 229 212 232 273 279 260 267 286 294 279 258 245 242 245 246 233 219
167 160 164 170 178 183 179 174 170 168 169 178 190 195 173 187 200 34 209 162 129 168 179 145 137 180 184 180 171 173 175 171 173 169 167 182 189 180 183 179 180 191 187 169 171 180 141 129 283 289 139 135 149 168 181 197 221 70 125 161 173 180 199 187 163 158 180 209 241 303 320 241 222 219 231 246 246 243 265 282 275 256 243 235 239 246 240 228
157 146 151 162 169 178 173 168 166 167 178 190 183 187 140 162 180 80 213 176 125 156 175 126 79 168 183 184 173 171 178 176 173 174 178 178 169 175 185 182 177 186 183 171 168 161 135 148 153 7 34 150 173 198 192 187 179 146 163 183 190 170 133 176 176 115 144 177 196 221 263 253 242 218 215 234 244 238 239 249 253 257 256 254 256 258 254 242
149 135 142 157 164 170 166 164 165 169 182 183 165 142 144 165 137 115 140 134 97 42 94 109 113 141 178 183 175 172 177 177 177 180 184 179 176 176 184 184 175 175 175 162 160 167 165 172 155 141 170 184 192 208 203 191 182 178 185 187 186 176 131 179 217 184 132 173 170 176 248 265 243 211 216 227 238 240 238 236 245 255 259 263 266 262 258 251
142 125 147 156 163 165 162 160 158 147 165 166 141 121 142 143 119 132 105 97 97 57 80 94 98 82 38 193 177 173 173 180 182 184 189 188 194 192 183 182 175 170 174 174 174 172 121 120 139 145 177 188 200 294 308 176 164 156 184 183 169 170 165 193 218 201 163 207 130 124 269 275 255 218 220 230 241 252 248 237 240 253 259 262 264 260 254 241
123 106 141 155 162 162 158 149 58 134 105 135 124 96 122 124 103 135 95 78 106 75 85 92 106 118 64 358 143 172 174 180 185 188 191 190 201 203 183 178 172 170 177 175 170 167 79 121 139 134 72 41 38 17 21 88 134 139 194 179 162 193 199 202 213 171 172 210 178 190 260 266 278 297 251 256 268 269 263 252 242 251 258 258 257 253 232 209
105 100 129 153 162 162 158 150 148 136 113 130 119 89 103 85 75 119 136 108 104 111 124 121 110 121 110 52 42 151 168 178 189 193 193 193 203 197 180 178 174 173 183 176 170 175 175 163 150 140 129 62 52 22 3 333 183 186 200 186 186 196 179 138 153 120 199 206 176 193 242 248 273 327 316 285 292 280 270 261 248 250 255 256 254 235 202 195
111 96 112 146 157 160 155 164 149 133 131 131 120 129 125 72 60 99 109 104 66 108 132 119 123 123 101 87 54 25 56 126 187 193 194 194 204 183 177 181 179 181 189 175 162 161 156 163 164 158 159 165 183 195 193 190 192 197 194 189 195 190 173 178 191 176 214 194 166 201 236 269 302 311 324 315 309 288 279 283 266 254 253 256 241 203 197 201
124 102 106 133 141 141 122 134 133 123 135 129 116 137 126 103 103 70 70 86 44 83 108 92 116 111 85 106 95 37 355 358 183 198 192 177 186 199 178 180 183 186 183 162 151 144 101 182 187 183 182 185 195 203 193 177 176 189 190 192 197 192 187 189 186 206 217 185 184 215 210 51 311 284 299 294 277 266 279 296 283 258 246 242 210 190 201 212
120 119 134 127 120 124 123 133 129 119 139 134 116 133 115 118 136 58 44 56 55 85 82 79 139 141 137 150 136 95 176 353 357 233 197 174 156 192 177 179 184 180 169 156 157 152 111 194 193 200 203 199 186 171 166 167 178 186 187 192 196 191 188 190 203 216 195 148 220 224 164 119 273 277 278 268 256 258 272 269 262 263 251 226 207 203 216 223
103 108 121 126 129 152 137 140 142 123 124 123 100 120 123 115 117 89 55 45 38 59 64 90 165 164 153 151 143 142 160 101 331 263 210 177 145 127 173 182 183 170 161 164 170 162 165 197 192 199 203 195 94 125 150 173 191 194 191 190 184 180 184 197 216 220 154 172 234 218 143 200 237 250 261 255 217 200 241 253 263 292 282 243 224 221 221 224
104 99 97 106 105 124 124 128 132 112 104 109 88 103 124 112 103 92 78 75 45 8 38 153 172 167 155 151 147 163 168 167 197 213 274 200 172 153 166 182 182 171 165 168 175 172 186 189 180 182 184 170 137 152 160 177 196 203 201 193 181 184 192 199 215 218 196 219 241 206 169 220 219 210 243 262 265 253 251 262 272 277 254 232 229 232 230 232
108 109 111 102 91 100 107 108 119 108 85 77 90 95 113 112 116 108 64 84 119 162 126 143 155 158 158 156 161 189 190 181 190 195 219 215 185 172 173 171 171 179 176 169 171 190 199 180 155 153 163 197 195 164 164 179 192 198 201 198 186 193 203 208 219 221 204 229 243 224 214 235 219 193 222 255 270 275 275 266 263 261 253 240 236 238 238 240
109 119 124 116 97 102 108 91 100 104 78 43 96 117 103 110 130 125 81 48 83 144 156 136 140 146 154 167 182 206 198 188 197 200 200 217 206 197 213 178 166 171 176 174 171 184 194 178 146 152 177 213 201 176 173 180 191 197 198 195 189 195 207 212 219 216 200 220 236 230 232 243 220 167 199 233 252 264 271 268 264 261 256 251 248 249 249 250
114 117 119 113 90 57 106 98 73 90 85 51 100 108 109 127 147 130 97 56 50 79 114 125 135 138 146 174 191 204 198 199 208 208 203 207 6 20 352 273 181 173 170 173 175 176 176 166 150 163 186 203 192 174 170 168 183 207 205 196 192 197 205 210 217 218 209 214 226 225 233 238 188 154 197 216 224 238 250 254 256 259 260 258 257 257 259 260